Two Harbors, MN

12:14 PM CST on November 17, 2019 (GMT -0600)
Helgeson

Weather History for KTWM - September, 2019

Change the Weather History Date:

Saturday, September 21, 2019

  Actual Average Record
Temperature  
Mean Temperature 66 °F -  
Max Temperature 71 °F 61 °F 77 °F (2015)
Min Temperature 60 °F 44 °F 30 °F (1999)
Growing Degree Days 16 (Base 50)    
Moisture  
Dew Point 59 °F    
Average Humidity 79    
Maximum Humidity 83    
Minimum Humidity 73    
Precipitation  
Precipitation 0.00 in - - ()
Sea Level Pressure  
Sea Level Pressure 29.75 in    
Wind  
Wind Speed 4 mph ()    
Max Wind Speed 15 mph    
Max Gust Speed 20 mph    
Visibility 6.2 miles    
Events Rain , Thunderstorm    
Averages and records for this station are not official NWS values.
T = Trace of Precipitation, MM = Missing Value Source: Averaged Metar Reports

Daily Weather History Graph

Daily Weather History Graph

Search for Another Location

Airport or City:

Astronomy

Sep. 21, 2019 Rise Set
Actual Time 6:52 AM CDT 7:07 PM CDT
Civil Twilight 6:21 AM CDT 7:37 PM CDT
Nautical Twilight 5:45 AM CDT 8:13 PM CDT
Astronomical Twilight 5:08 AM CDT 8:50 PM CDT
Moon 11:19 PM CDT (9/21) 2:23 PM CDT (9/21)
Length of Visible Light 13h 15m
Length of Day
12h 14m
Waning Gibbous, 54% of the Moon is Illuminated
Sep 21
Waning Gibbous
Sep 21
Last Quarter
Sep 28
New
Oct 5
First Quarter
Oct 13
Full

Hourly Weather History & Observations

Time (CDT) Temp. Dew Point Humidity Pressure Visibility Wind Dir Wind Speed Gust Speed Precip Events Conditions
12:55 AM 60.8 °F 53.6 °F 77% 29.95 in 10.0 mi ENE 5.8 mph - N/A   Mostly Cloudy
1:55 AM 60.8 °F 53.6 °F 77% 29.93 in 7.0 mi ENE 4.6 mph - N/A   Overcast
2:55 AM 60.8 °F 53.6 °F 77% 29.91 in 7.0 mi Calm Calm - N/A   Overcast
3:55 AM 60.8 °F 55.4 °F 82% 29.89 in 7.0 mi Calm Calm - N/A   Overcast
4:55 AM 62.6 °F 55.4 °F 77% 29.85 in 4.0 mi Calm Calm - N/A   Haze
5:13 AM 62.6 °F 57.2 °F 82% 29.85 in 1.8 mi ENE 4.6 mph - N/A   Haze
5:55 AM 62.6 °F 57.2 °F 82% 29.85 in 1.8 mi Calm Calm - N/A   Haze
6:24 AM 62.6 °F 55.4 °F 77% 29.84 in 2.5 mi Calm Calm - N/A   Haze
6:41 AM 62.6 °F 55.4 °F 77% 29.83 in 1.2 mi ENE 4.6 mph - N/A   Haze
7:05 AM 62.6 °F 57.2 °F 82% 29.82 in 1.0 mi Calm Calm - N/A   Haze
7:23 AM 62.6 °F 55.4 °F 77% 29.82 in 0.2 mi Calm Calm - N/A   Haze
7:38 AM 62.6 °F 57.2 °F 82% 29.82 in 0.8 mi Calm Calm - N/A   Haze
7:55 AM 62.6 °F 57.2 °F 82% 29.80 in 0.5 mi NE 3.5 mph - N/A   Haze
8:44 AM 64.4 °F 57.2 °F 77% 29.80 in 2.0 mi Calm Calm - N/A   Light Drizzle
9:01 AM 64.4 °F 57.2 °F 77% 29.79 in 2.5 mi East 3.5 mph - N/A Thunderstorm Haze
9:20 AM 64.4 °F 57.2 °F 77% 29.79 in 2.5 mi Calm Calm - N/A Rain , Thunderstorm Light Thunderstorms and Rain
9:32 AM 64.4 °F 59.0 °F 83% 29.78 in 3.0 mi ESE 4.6 mph - N/A Rain , Thunderstorm Thunderstorms and Rain
10:03 AM 64.4 °F 57.2 °F 77% 29.79 in 4.0 mi Calm Calm - N/A Thunderstorm Unknown
10:20 AM 64.4 °F 57.2 °F 77% 29.79 in 3.0 mi SE 3.5 mph - N/A   Heavy Drizzle
10:42 AM 64.4 °F 57.2 °F 77% 29.78 in 3.0 mi South 3.5 mph - N/A   Drizzle
11:05 AM 64.4 °F 57.2 °F 77% 29.77 in 2.0 mi Calm Calm - N/A Thunderstorm Haze
11:23 AM 64.4 °F 57.2 °F 77% 29.76 in 1.8 mi SSE 4.6 mph - N/A Thunderstorm Haze
11:47 AM 64.4 °F 59.0 °F 83% 29.77 in 2.5 mi South 9.2 mph - N/A   Haze
12:23 PM 62.6 °F 57.2 °F 82% 29.76 in 0.2 mi South 9.2 mph - N/A Rain Light Rain
12:56 PM 62.6 °F 55.4 °F 77% 29.69 in 7.0 mi North 4.6 mph - N/A Rain Rain
1:21 PM 62.6 °F 57.2 °F 82% 29.73 in 10.0 mi WSW 8.1 mph - N/A   Scattered Clouds
1:51 PM 68.0 °F 62.6 °F 83% 29.71 in 10.0 mi SW 9.2 mph - N/A   Clear
1:58 PM 69.8 °F 62.6 °F 78% 29.71 in 10.0 mi SW 10.4 mph - N/A   Clear
2:13 PM 71.6 °F 62.6 °F 73% 29.71 in 10.0 mi SW 15.0 mph 18.4 mph N/A   Scattered Clouds
2:28 PM 71.6 °F 62.6 °F 73% 29.71 in 10.0 mi SSW 11.5 mph 17.3 mph N/A   Scattered Clouds
2:55 PM 71.6 °F 62.6 °F 73% 29.70 in 10.0 mi SW 9.2 mph - N/A   Scattered Clouds
3:31 PM 71.6 °F 64.4 °F 78% 29.70 in 5.0 mi SSW 11.5 mph 19.6 mph N/A   Haze
4:02 PM 71.6 °F 64.4 °F 78% 29.69 in 10.0 mi SSW 8.1 mph - N/A   Clear
4:19 PM 71.6 °F 64.4 °F 78% 29.69 in 10.0 mi SSW 8.1 mph - N/A   Clear
4:55 PM 71.6 °F 64.4 °F 78% 29.68 in 10.0 mi SSW 3.5 mph - N/A   Scattered Clouds
5:21 PM 71.6 °F 64.4 °F 78% 29.69 in 10.0 mi SSW 9.2 mph - N/A   Scattered Clouds
5:40 PM 71.6 °F 64.4 °F 78% 29.69 in 10.0 mi SW 8.1 mph - N/A   Scattered Clouds
6:05 PM 71.6 °F 64.4 °F 78% 29.68 in 10.0 mi South 4.6 mph - N/A Thunderstorm Clear
6:26 PM 71.6 °F 64.4 °F 78% 29.67 in 10.0 mi South 5.8 mph - N/A   Clear
6:42 PM 71.6 °F 64.4 °F 78% 29.67 in 10.0 mi SW 4.6 mph - N/A Rain Light Rain
6:55 PM 71.6 °F 64.4 °F 78% 29.67 in 7.0 mi SSW 6.9 mph - N/A Rain Heavy Rain
7:28 PM 69.8 °F 62.6 °F 78% 29.67 in 10.0 mi Calm Calm - N/A   Clear
7:38 PM 69.8 °F 62.6 °F 78% 29.67 in 10.0 mi WSW 4.6 mph - N/A   Clear
7:55 PM 69.8 °F 62.6 °F 78% 29.68 in 7.0 mi SW 3.5 mph - N/A   Clear
8:39 PM 68.0 °F 60.8 °F 78% 29.70 in 10.0 mi SSW 3.5 mph - N/A   Clear
8:55 PM 66.2 °F 60.8 °F 83% 29.70 in 10.0 mi SW 3.5 mph - N/A   Clear
9:25 PM 66.2 °F 60.8 °F 83% 29.70 in 10.0 mi SW 5.8 mph - N/A   Clear
9:40 PM 66.2 °F 59.0 °F 78% 29.70 in 10.0 mi WSW 4.6 mph - N/A   Clear
9:55 PM 66.2 °F 59.0 °F 78% 29.71 in 10.0 mi SW 3.5 mph - N/A   Clear
10:55 PM 62.6 °F 57.2 °F 82% 29.71 in 10.0 mi WSW 4.6 mph - N/A   Clear
11:55 PM 60.8 °F 55.4 °F 82% 29.70 in 0.5 mi Calm Calm - N/A   Haze